[[[{"header":{"parameterUnit":"kt","parameterCategory":2,"dx":1,"dy":1,"la1":30.253999710083008,"la2":30.299108505249023,"lo1":-89.0895004272461,"lo2":-89.04439544677734,"nx":28,"ny":28,"refTime":"2022-09-30T21:00:00:Z","depth":0,"parameterNumber":1,"parameterNumberName":"U-component_of_WINDS"},"data":[2.1029,2.1063,2.1068,2.1109,2.112,2.115,2.1162,2.1179,2.1194,2.1231,2.1254,2.1263,2.1281,2.131,2.1336,2.134,2.1351,2.136,2.1363,2.1315,2.1309,2.1303,2.1295,2.1362,2.1362,2.1413,2.1413,2.1414,2.0999,2.101,2.1032,2.1057,2.1077,2.1072,2.1092,2.1109,2.1136,2.1154,2.1176,2.1209,2.1236,2.1251,2.1278,2.1296,2.1296,2.1304,2.1303,2.1306,2.1255,2.1246,2.1304,2.1304,2.1304,2.1304,2.1304,2.1304,2.0944,2.0963,2.098,2.1005,2.1018,2.1035,2.1055,2.1065,2.1087,2.1115,2.1116,2.1146,2.1166,2.12,2.1213,2.1239,2.1231,2.1241,2.1244,2.1247,2.125,2.1181,2.1243,2.1243,2.1243,2.1243,2.1243,0,2.0905,2.0908,2.0928,2.0951,2.0969,2.0987,2.1004,2.1017,2.1023,2.1041,2.1069,2.1085,2.1119,2.1146,2.1172,2.1183,2.1179,2.1179,2.1186,2.1187,2.1185,2.1189,2.1106,2.1177,2.1176,2.1176,2.1175,2.1175,2.0852,2.0873,2.0892,2.0906,2.0916,2.0939,2.0953,2.0956,2.0972,2.0995,2.1012,2.1038,2.106,2.1103,2.1114,2.114,2.1138,2.1165,2.1142,2.1142,2.1141,2.114,2.1143,2.1169,2.117,2.1171,2.1171,0,2.0822,2.0827,2.0861,2.0877,2.0882,2.0904,2.0919,2.0938,2.0944,2.0973,2.0979,2.0989,2.1016,2.1023,2.1054,2.1057,2.1099,2.1096,2.1093,2.1093,2.1119,2.1117,2.1198,2.121,2.1139,2.114,2.114,0,2.0779,2.0806,2.0812,2.0831,2.0863,2.0864,2.0895,2.0903,2.0917,2.094,2.0935,2.0956,2.096,2.0983,2.0986,2.1021,2.1026,2.1031,2.1032,2.1032,2.1032,2.1041,2.1038,2.103,2.103,2.103,2.1029,0,2.0732,2.0765,2.0796,2.0805,2.0824,2.0839,2.0848,2.0863,2.0877,2.0896,2.0905,2.0928,2.094,2.0958,2.0963,2.0947,2.1005,2.0984,2.1009,2.101,2.1022,2.1021,2.1091,2.1029,2.1029,2.1028,2.1028,0,2.0697,2.0714,2.0757,2.0774,2.0782,2.0802,2.0824,2.0842,2.0858,2.0861,2.0876,2.0874,2.0902,2.0882,2.0922,2.0901,2.0914,2.0921,2.0923,2.0926,2.0903,2.0943,2.1008,2.1016,2.093,2.0929,2.0928,0,2.0643,2.0687,2.0687,2.0728,2.0749,2.0742,2.0764,2.0778,2.0784,2.0803,2.081,2.0832,2.0817,2.0825,2.0844,2.0852,2.088,2.0848,2.088,2.0881,2.0877,2.0937,2.0945,2.0993,2.0917,2.0919,2.0919,0,2.0601,2.0621,2.0628,2.0638,2.0655,2.0671,2.0697,2.0718,2.0732,2.0746,2.0769,2.0799,2.079,2.0802,2.0801,2.0821,2.0861,2.0808,2.0809,2.0819,2.0912,2.092,2.0928,2.0857,2.0858,2.0859,2.0911,0,2.0552,2.0572,2.0591,2.061,2.0624,2.0648,2.0651,2.0666,2.0663,2.0668,2.07,2.0711,2.0733,2.0742,2.0739,2.0781,2.0775,2.0764,2.0745,2.0783,2.0801,2.0807,2.0719,2.0719,2.0718,2.0718,0,0,2.0499,2.0529,2.0526,2.055,2.0561,2.0551,2.0578,2.0587,2.0607,2.0616,2.0604,2.0648,2.0657,2.0696,2.0708,2.0716,2.0724,2.071,2.0765,2.077,2.0775,2.0793,2.08,2.0717,2.0717,2.0717,2.0716,0,2.0481,2.0488,2.0513,2.0523,2.0537,2.0539,2.0545,2.0557,2.0561,2.0591,2.0583,2.0602,2.0635,2.0647,2.0657,2.0705,2.0698,2.0711,2.0737,2.076,2.0765,2.0771,2.079,2.0796,2.0715,2.0715,2.0715,0,2.0442,2.045,2.0461,2.0484,2.0492,2.0513,2.0493,2.0515,2.0531,2.0518,2.0548,2.0554,2.0569,2.0603,2.0619,2.0609,2.0675,2.0653,2.0656,2.0658,2.0681,2.0688,2.0694,2.0612,2.0612,2.0611,0,0,2.0426,2.0444,2.0452,2.048,2.0486,2.0489,2.05,2.0498,2.051,2.0515,2.0522,2.0535,2.0555,2.0567,2.0586,2.0623,2.0627,2.0641,2.0645,2.0649,2.0653,2.0677,2.0684,2.061,2.061,2.061,0,0,2.0418,2.0429,2.0423,2.0455,2.0467,2.0477,2.0494,2.0488,2.0504,2.0501,2.0499,2.0502,2.0534,2.054,2.0521,2.0579,2.0559,2.0564,2.0573,2.058,2.0584,2.0583,2.0502,0,0,0,0,0,2.04,2.0427,2.0422,2.0428,2.0455,2.048,2.0483,2.0481,2.0468,2.0482,2.0488,2.0478,2.053,2.0513,2.0519,2.054,2.0592,2.0595,2.0598,2.0619,2.0626,2.0631,0,0,0,0,0,0,2.0402,2.0409,2.0422,2.0433,2.0439,2.0478,2.0456,2.0456,2.0467,2.0465,2.0478,2.0479,2.0478,2.051,2.0516,2.0536,2.0501,2.0593,2.0596,2.0598,2.0622,2.0627,2.0631,0,0,0,0,0,2.0404,2.0409,2.0453,2.0432,2.0438,2.0442,2.0455,2.0455,2.0463,2.047,2.0471,2.0461,2.0479,2.0483,2.0513,2.0533,2.0497,2.0499,2.0595,2.0597,2.0599,2.0624,0,0,0,0,0,0,2.0405,2.041,2.0454,2.0456,2.0421,2.044,2.0443,2.0454,2.0468,2.0469,2.0453,2.0451,2.0479,2.0483,2.0486,2.0533,2.0494,2.0496,2.0497,2.0596,2.0598,2.06,0,0,0,0,0,0,2.0407,2.0411,2.0455,2.0441,2.0441,2.0438,2.044,2.0465,2.0468,2.045,2.0449,2.0452,2.0474,2.0483,2.0485,2.0524,2.0491,2.0493,2.0495,2.0496,2.0598,2.0599,0,0,0,0,0,0,2.0409,2.0412,2.044,2.044,2.044,2.0458,2.046,2.0488,2.0456,2.0449,2.0453,2.0451,2.0475,2.0477,2.0485,2.0523,2.0524,2.0491,2.0493,2.0494,2.0494,0,0,0,0,0,0,0,2.041,2.0385,2.0444,2.044,2.044,2.0471,2.0471,2.0471,2.0455,2.0454,2.0453,2.0452,2.048,2.0482,2.0484,2.0521,0,0,2.0491,2.0492,0,0,0,0,0,0,0,0,2.0384,2.0385,2.0444,2.0445,2.0445,2.0471,2.0471,2.0471,2.0455,2.0454,2.0453,2.0452,2.0481,2.0482,2.0484,0,0,0,0,0,0,0,0,0,0,0,0,0,0,0,2.0444,2.0445,0,2.0471,2.0471,2.0471,2.0455,2.0454,2.0453,2.0453,2.0481,2.0483,2.0484,0,0,0,0,0,0,0,0,0,0,0,0,0,0,0,0,0,0,0,0,0,0,0,0,0,0,0,0,0,0,0,0,0,0,0,0,0,0,0,0,0,0,0,0,0,0,0,0,0,0,0,0,0,0,0,0,0,0,0,0,0,0,0,0,0,0,0,0,0]}],[{"header":{"parameterUnit":"kt","parameterCategory":2,"dx":1,"dy":1,"la1":30.253999710083008,"la2":30.299108505249023,"lo1":-89.0895004272461,"lo2":-89.04439544677734,"nx":28,"ny":28,"refTime":"2022-09-30T21:00:00:Z","depth":0,"parameterNumber":2,"parameterNumberName":"V-component_of_WINDS"},"data":[-8.3659,-8.3733,-8.3767,-8.3865,-8.3912,-8.3984,-8.402,-8.407,-8.4117,-8.4205,-8.4261,-8.4299,-8.4356,-8.4427,-8.4487,-8.4502,-8.4525,-8.4529,-8.4545,-8.4501,-8.4497,-8.4493,-8.4479,-8.4534,-8.4534,-8.4586,-8.4587,-8.4587,-8.363,-8.3678,-8.3739,-8.3821,-8.3874,-8.3892,-8.3957,-8.3999,-8.4062,-8.4119,-8.4175,-8.4253,-8.4318,-8.4373,-8.444,-8.4473,-8.4482,-8.4488,-8.4486,-8.4494,-8.4449,-8.4433,-8.448,-8.448,-8.448,-8.448,-8.448,-8.448,-8.3585,-8.3628,-8.3697,-8.3764,-8.3813,-8.3867,-8.3912,-8.3958,-8.4016,-8.4092,-8.4116,-8.4186,-8.4247,-8.434,-8.4378,-8.4432,-8.4429,-8.4444,-8.4448,-8.4451,-8.4451,-8.4374,-8.4444,-8.4444,-8.4444,-8.4444,-8.4444,0,-8.3562,-8.3588,-8.3648,-8.3719,-8.3769,-8.3825,-8.3881,-8.391,-8.3968,-8.4013,-8.408,-8.4123,-8.4208,-8.4272,-8.4339,-8.4375,-8.4392,-8.4397,-8.4407,-8.4397,-8.4381,-8.4391,-8.4315,-8.4393,-8.4393,-8.4393,-8.4393,-8.4393,-8.352,-8.3564,-8.3651,-8.3688,-8.3727,-8.3786,-8.3828,-8.3876,-8.3917,-8.3991,-8.4024,-8.409,-8.4145,-8.4243,-8.4291,-8.4352,-8.436,-8.4388,-8.4369,-8.4359,-8.4361,-8.4358,-8.4363,-8.4389,-8.439,-8.439,-8.439,0,-8.3493,-8.3545,-8.3623,-8.3703,-8.3724,-8.3767,-8.3833,-8.3875,-8.3914,-8.3976,-8.3993,-8.4052,-8.4114,-8.4158,-8.4236,-8.4257,-8.4327,-8.4333,-8.4308,-8.4312,-8.434,-8.4337,-8.4426,-8.444,-8.4383,-8.4384,-8.4384,0,-8.3477,-8.3532,-8.3606,-8.3648,-8.3711,-8.3758,-8.3818,-8.3857,-8.391,-8.3959,-8.3988,-8.4033,-8.4082,-8.4133,-8.4163,-8.4227,-8.4241,-8.4261,-8.4268,-8.4258,-8.4256,-8.4277,-8.4274,-8.4281,-8.4281,-8.428,-8.428,0,-8.3429,-8.3531,-8.3601,-8.3632,-8.3719,-8.375,-8.3787,-8.3846,-8.3884,-8.394,-8.3965,-8.4026,-8.4059,-8.4105,-8.4144,-8.413,-8.4223,-8.4211,-8.4242,-8.4242,-8.4259,-8.4257,-8.4326,-8.4279,-8.4279,-8.4279,-8.4279,0,-8.3422,-8.3482,-8.3573,-8.3648,-8.3672,-8.3715,-8.3781,-8.3829,-8.3888,-8.3911,-8.3954,-8.3977,-8.4036,-8.4022,-8.4104,-8.4076,-8.4107,-8.413,-8.4133,-8.4139,-8.4122,-8.4155,-8.4218,-8.4226,-8.4148,-8.4147,-8.4146,0,-8.3355,-8.346,-8.3501,-8.3585,-8.364,-8.367,-8.3719,-8.377,-8.3805,-8.3854,-8.3891,-8.3945,-8.3944,-8.3967,-8.4002,-8.4041,-8.4077,-8.4037,-8.4105,-8.4107,-8.409,-8.4148,-8.4146,-8.42,-8.4133,-8.4134,-8.4135,0,-8.3307,-8.3413,-8.3425,-8.3463,-8.3538,-8.3582,-8.3639,-8.3704,-8.3735,-8.3788,-8.3835,-8.3912,-8.3915,-8.395,-8.3973,-8.4007,-8.4054,-8.4004,-8.4006,-8.4012,-8.4129,-8.4128,-8.4137,-8.4062,-8.4063,-8.4065,-8.4125,0,-8.3288,-8.3345,-8.338,-8.3459,-8.35,-8.3554,-8.3601,-8.3638,-8.3658,-8.3692,-8.3762,-8.381,-8.3872,-8.3893,-8.391,-8.3975,-8.397,-8.397,-8.3958,-8.3995,-8.4016,-8.4025,-8.3924,-8.3924,-8.3923,-8.3923,0,0,-8.321,-8.3293,-8.3333,-8.339,-8.3427,-8.3455,-8.3509,-8.3547,-8.3622,-8.3646,-8.3641,-8.3755,-8.3793,-8.3871,-8.3887,-8.3911,-8.3926,-8.391,-8.3977,-8.3983,-8.3988,-8.401,-8.4018,-8.3923,-8.3923,-8.3923,-8.3923,0,-8.3212,-8.3256,-8.3309,-8.3352,-8.3417,-8.345,-8.3463,-8.353,-8.3553,-8.3621,-8.3639,-8.3685,-8.3772,-8.3812,-8.3843,-8.3903,-8.3912,-8.3918,-8.3936,-8.3975,-8.3981,-8.3986,-8.4008,-8.4016,-8.3923,-8.3923,-8.3923,0,-8.3175,-8.3226,-8.3256,-8.3342,-8.3382,-8.3435,-8.3436,-8.3491,-8.353,-8.3552,-8.3617,-8.365,-8.3704,-8.3772,-8.3803,-8.3798,-8.3897,-8.3872,-8.3874,-8.3877,-8.3917,-8.3924,-8.393,-8.3847,-8.3846,-8.3846,0,0,-8.317,-8.3223,-8.329,-8.3345,-8.337,-8.342,-8.3451,-8.3474,-8.3525,-8.3545,-8.3586,-8.3633,-8.3684,-8.3717,-8.3766,-8.3833,-8.3848,-8.3861,-8.3864,-8.3867,-8.3872,-8.3912,-8.3919,-8.3844,-8.3844,-8.3844,0,0,-8.3166,-8.3247,-8.3259,-8.3329,-8.3379,-8.3446,-8.3477,-8.3491,-8.3541,-8.354,-8.3576,-8.359,-8.3653,-8.3682,-8.3656,-8.3762,-8.3749,-8.3756,-8.3741,-8.3746,-8.3749,-8.374,-8.366,0,0,0,0,0,-8.3192,-8.3238,-8.3248,-8.3266,-8.3371,-8.3441,-8.3455,-8.3488,-8.348,-8.3504,-8.3541,-8.3548,-8.3677,-8.3654,-8.3671,-8.3699,-8.3823,-8.3827,-8.3831,-8.3826,-8.3831,-8.3835,0,0,0,0,0,0,-8.32,-8.3223,-8.3247,-8.3315,-8.3339,-8.344,-8.3433,-8.3444,-8.3478,-8.3479,-8.3541,-8.355,-8.3578,-8.3648,-8.3662,-8.3688,-8.3655,-8.3825,-8.3828,-8.3831,-8.3828,-8.3832,-8.3835,0,0,0,0,0,-8.3206,-8.3224,-8.3383,-8.3315,-8.3335,-8.3391,-8.3432,-8.344,-8.3467,-8.3523,-8.3532,-8.3489,-8.3578,-8.3592,-8.3657,-8.3681,-8.3645,-8.365,-8.3827,-8.3829,-8.3832,-8.383,0,0,0,0,0,0,-8.3211,-8.3232,-8.3388,-8.3396,-8.33,-8.3386,-8.3401,-8.3437,-8.3509,-8.3519,-8.3472,-8.3472,-8.3578,-8.3589,-8.36,-8.3677,-8.3637,-8.3643,-8.3646,-8.3829,-8.3831,-8.3832,0,0,0,0,0,0,-8.3222,-8.3238,-8.3392,-8.3371,-8.3377,-8.3381,-8.3395,-8.3453,-8.351,-8.3455,-8.3457,-8.3471,-8.3561,-8.3587,-8.3596,-8.3685,-8.3631,-8.3636,-8.364,-8.3642,-8.383,-8.3832,0,0,0,0,0,0,-8.3229,-8.3243,-8.3369,-8.3374,-8.3378,-8.3464,-8.3433,-8.3537,-8.3495,-8.3451,-8.3492,-8.3491,-8.3559,-8.3568,-8.3593,-8.3679,-8.3684,-8.3632,-8.3635,-8.3637,-8.3639,0,0,0,0,0,0,0,-8.3235,-8.3137,-8.3344,-8.3375,-8.3379,-8.3465,-8.3467,-8.3469,-8.3495,-8.3494,-8.3493,-8.3491,-8.3603,-8.3608,-8.3614,-8.3673,0,0,-8.3631,-8.3634,0,0,0,0,0,0,0,0,-8.3132,-8.3136,-8.3345,-8.3346,-8.3348,-8.3465,-8.3467,-8.3468,-8.3495,-8.3494,-8.3493,-8.3492,-8.3604,-8.3609,-8.3613,0,0,0,0,0,0,0,0,0,0,0,0,0,0,0,-8.3345,-8.3346,0,-8.3465,-8.3467,-8.3468,-8.3495,-8.3494,-8.3493,-8.3492,-8.3605,-8.3609,-8.3613,0,0,0,0,0,0,0,0,0,0,0,0,0,0,0,0,0,0,0,0,0,0,0,0,0,0,0,0,0,0,0,0,0,0,0,0,0,0,0,0,0,0,0,0,0,0,0,0,0,0,0,0,0,0,0,0,0,0,0,0,0,0,0,0,0,0,0,0,0]}]]]